Location: *
(41.3833°S, 177.8333°W)
Time: 19:36:06
(UTC+00:00)

STARLINK-1118 - Pass Details

Date: 01 April 2020
Orbit: 179 x 188 km, 53.0° (Epoch: 02 April)

Event Time Altitude Azimuth Distance (km) Brightness Sun altitude
Exits shadow 17:39:45 - 227° (SW) 1,246 5.0 -6.1°
Reaches altitude 10° 17:40:36 10° 224° (SW) 883 4.3 -6.0°
Maximum altitude 17:42:30 54° 144° (SE) 258 2.3 -5.6°
Drops below altitude 10° 17:44:24 10° 63° (ENE) 873 5.9 -5.2°
Sets 17:46:11 0° 58° (ENE) 1,638 7.3 -4.9°
